Weather History for Cahokia, IL

Change the Weather History Date:

Monday, June 9, 2014

  Actual Average Record
Temperature  
Mean Temperature 70 °F -  
Max Temperature 78 °F 87 °F 99 °F (1953)
Min Temperature 64 °F 68 °F 51 °F (2007)
Cooling Degree Days 6    
Growing Degree Days 20 (Base 50)    
Moisture  
Dew Point 63 °F    
Average Humidity 82    
Maximum Humidity 97    
Minimum Humidity 57    
Precipitation  
Precipitation 0.68 in - - ()
Sea Level Pressure  
Sea Level Pressure 29.84 in    
Wind  
Wind Speed 9 mph (East)    
Max Wind Speed 17 mph    
Max Gust Speed 24 mph    
Visibility 7 miles    
Events Rain    
Averages and records for this station are not official NWS values.
T = Trace of Precipitation, MM = Missing Value Source: NWS Daily Summary

Daily Weather History Graph

Daily Weather History Graph

Search for Another Location

Airport:

Trip Planner

Search our weather history database for the weather conditions in past years. The results will help you decide how hot, cold, wet, or windy it might be!

Date:

Astronomy

Jun. 09, 2014 Rise Set
Actual Time 5:36 AM CDT 8:24 PM CDT
Civil Twilight 5:04 AM CDT 8:55 PM CDT
Nautical Twilight 4:24 AM CDT 9:35 PM CDT
Astronomical Twilight 3:39 AM CDT 10:20 PM CDT
Moon 4:47 PM CDT (6/9) 3:00 AM CDT (6/9)
Length of Visible Light 15h 51m
Length of Day
14h 48m
Waxing Gibbous, 85% of the Moon is Illuminated
Jun 9
Waxing Gibbous
Jun 12
Full
Jun 19
Last Quarter
Jun 27
New
Jul 5
First Quarter

Hourly Weather History & Observations

Time (CDT) Temp. Dew Point Humidity Pressure Visibility Wind Dir Wind Speed Gust Speed Precip Events Conditions
12:53 AM 69.1 °F 64.9 °F 87% 29.95 in 10.0 mi NE 3.5 mph - N/A   Clear
1:53 AM 69.1 °F 63.0 °F 81% 29.94 in 10.0 mi ENE 3.5 mph - N/A   Clear
2:53 AM 69.1 °F 63.0 °F 81% 29.93 in 10.0 mi East 8.1 mph - N/A   Scattered Clouds
3:53 AM 68.0 °F 62.1 °F 81% 29.92 in 10.0 mi East 8.1 mph - N/A   Mostly Cloudy
4:53 AM 64.9 °F 60.1 °F 84% 29.91 in 10.0 mi ENE 4.6 mph - N/A   Partly Cloudy
5:53 AM 64.9 °F 57.9 °F 78% 29.91 in 10.0 mi NE 5.8 mph - N/A   Partly Cloudy
6:53 AM 66.0 °F 60.1 °F 81% 29.91 in 10.0 mi East 5.8 mph - N/A   Clear
7:53 AM 66.2 °F 60.8 °F 83% 29.91 in 10.0 mi East 10.4 mph - N/A   Clear
8:53 AM 70.0 °F 62.1 °F 76% 29.91 in 10.0 mi SE 6.9 mph - N/A   Clear
9:52 AM 75.2 °F 64.4 °F 69% 29.91 in 10.0 mi SE 10.4 mph - N/A   Clear
10:52 AM 77.0 °F 64.4 °F 65% 29.91 in 10.0 mi ESE 9.2 mph - N/A   Partly Cloudy
10:53 AM 77.0 °F 64.9 °F 66% 29.90 in 10.0 mi SE 6.9 mph - N/A   Scattered Clouds
11:53 AM 77.0 °F 61.0 °F 58% 29.89 in 10.0 mi ESE 13.8 mph 20.7 mph N/A   Overcast
1:53 PM 75.0 °F 62.1 °F 64% 29.86 in 10.0 mi SE 12.7 mph - N/A   Overcast
2:53 PM 75.0 °F 59.0 °F 57% 29.84 in 10.0 mi SE 17.3 mph 24.2 mph N/A   Overcast
3:53 PM 75.0 °F 62.1 °F 64% 29.82 in 10.0 mi ESE 10.4 mph - N/A   Overcast
4:53 PM 73.9 °F 61.0 °F 64% 29.81 in 10.0 mi East 11.5 mph - N/A   Overcast
5:53 PM 73.0 °F 60.1 °F 64% 29.79 in 10.0 mi East 9.2 mph - 0.00 in   Overcast
6:53 PM 70.0 °F 62.1 °F 76% 29.79 in 9.0 mi East 10.4 mph - 0.00 in Rain Light Rain
7:53 PM 66.9 °F 63.0 °F 87% 29.80 in 4.0 mi East 10.4 mph - 0.06 in Rain Light Rain
8:51 PM 66.2 °F 64.4 °F 94% 29.79 in 4.0 mi East 10.4 mph - 0.17 in Rain Rain
8:53 PM 66.0 °F 64.0 °F 93% 29.78 in 4.0 mi East 10.4 mph - 0.18 in Rain Rain
9:32 PM 66.0 °F 64.0 °F 93% 29.78 in 4.0 mi ENE 15.0 mph - 0.08 in Rain Rain
9:47 PM 66.2 °F 64.4 °F 94% 29.78 in 3.0 mi ENE 11.5 mph - 0.12 in Rain Rain
9:53 PM 66.0 °F 64.0 °F 93% 29.78 in 3.0 mi East 13.8 mph - 0.14 in Rain Rain
9:55 PM 66.0 °F 64.0 °F 93% 29.78 in 3.0 mi East 13.8 mph - 0.00 in Rain Rain
10:02 PM 66.0 °F 64.0 °F 93% 29.78 in 3.0 mi ENE 11.5 mph - 0.03 in Rain Rain
10:10 PM 64.9 °F 64.0 °F 97% 29.78 in 2.0 mi ENE 12.7 mph - 0.13 in Rain Heavy Rain
10:12 PM 64.9 °F 64.0 °F 97% 29.78 in 1.8 mi ENE 11.5 mph - 0.14 in Rain Heavy Rain
10:21 PM 64.9 °F 64.0 °F 97% 29.77 in 2.0 mi ENE 13.8 mph - 0.20 in Rain Heavy Rain
10:28 PM 64.9 °F 64.0 °F 97% 29.77 in 2.5 mi ENE 16.1 mph 23.0 mph 0.22 in Rain Rain
10:35 PM 66.0 °F 64.0 °F 93% 29.76 in 3.0 mi ENE 16.1 mph - 0.24 in Rain Rain
10:53 PM 66.0 °F 64.0 °F 93% 29.76 in 5.0 mi East 13.8 mph - 0.26 in Rain Light Rain
11:53 PM 64.9 °F 63.0 °F 93% 29.75 in 5.0 mi ENE 9.2 mph - 0.04 in Rain Light Rain